Torna al catalogo

FALCON 9 R/B

LostLPO
NORAD 62719·ROCKET BODY·🇺🇸 United States

Lanciato Jan 15, 2025 da Cape Canaveral Space Force Station

Loading…

TLE

AggiornatoSource: Space-Track

Epoca: Aug 14, 2026, 09:25 UTC

1 62719U 25010D   26226.39285003 -.00003969  00000-0  00000-0 0  9999
2 62719  12.9402 286.6581 4538426 255.5778  69.9176  0.05909371   240

Traccia FALCON 9 R/B in tempo reale con AllMySat

Download on the App Store